Time,TemperatureF,DewpointF,PressureIn,WindDirection,WindDirectionDegrees,WindSpeedMPH,WindSpeedGustMPH,Humidity,HourlyPrecipIn,Conditions,Clouds,dailyrainin,SoftwareType,DateUTC
2013-10-16 00:11:00,46.0,43.0,-100.00,East,90,1.0,4.0,87,-99.99,,,-99.99,,2013-10-16 07:11:00,
2013-10-16 00:42:00,46.0,43.0,-100.00,East,90,1.0,3.0,87,-99.99,,,-99.99,,2013-10-16 07:42:00,
2013-10-16 01:11:00,46.0,43.0,-100.00,SE,135,1.0,4.0,88,-99.99,,,-99.99,,2013-10-16 08:11:00,
2013-10-16 01:21:00,45.0,42.0,-100.00,SE,135,1.0,2.0,88,-99.99,,,-99.99,,2013-10-16 08:21:00,
2013-10-16 01:42:00,45.0,42.0,-100.00,East,90,1.0,2.0,90,-99.99,,,-99.99,,2013-10-16 08:42:00,
2013-10-16 01:52:00,45.0,42.0,-100.00,East,90,1.0,2.0,90,-99.99,,,-99.99,,2013-10-16 08:52:00,
2013-10-16 02:11:00,44.0,42.0,-100.00,South,180,1.0,4.0,90,-99.99,,,-99.99,,2013-10-16 09:11:00,
2013-10-16 02:43:00,44.0,42.0,-100.00,SW,225,1.0,4.0,91,-99.99,,,-99.99,,2013-10-16 09:43:00,
2013-10-16 03:42:00,44.0,42.0,-100.00,East,90,1.0,4.0,92,-99.99,,,-99.99,,2013-10-16 10:42:00,
2013-10-16 04:42:00,43.0,41.0,-100.00,SE,135,1.0,3.0,92,-99.99,,,-99.99,,2013-10-16 11:42:00,
2013-10-16 05:42:00,42.0,40.0,-100.00,SE,135,1.0,1.0,92,-99.99,,,-99.99,,2013-10-16 12:42:00,
2013-10-16 05:52:00,42.0,40.0,-100.00,South,180,0.0,3.0,93,-99.99,,,-99.99,,2013-10-16 12:52:00,
2013-10-16 06:01:00,42.0,40.0,-100.00,South,180,0.0,3.0,93,-99.99,,,-99.99,,2013-10-16 13:01:00,
2013-10-16 06:42:00,42.0,40.0,-100.00,South,180,1.0,1.0,93,-99.99,,,-99.99,,2013-10-16 13:42:00,
2013-10-16 07:42:00,41.0,40.0,-100.00,East,90,1.0,3.0,93,-99.99,,,-99.99,,2013-10-16 14:42:00,
2013-10-16 08:43:00,41.0,40.0,-100.00,North,0,0.0,4.0,93,-99.99,,,-99.99,,2013-10-16 15:43:00,
2013-10-16 10:22:00,46.0,41.0,-100.00,South,180,2.0,4.0,82,-99.99,,,-99.99,,2013-10-16 17:22:00,
2013-10-16 10:33:00,46.0,41.0,-100.00,South,180,2.0,4.0,82,-99.99,,,-99.99,,2013-10-16 17:33:00,
2013-10-16 10:52:00,49.0,41.0,-100.00,NW,315,1.0,3.0,74,-99.99,,,-99.99,,2013-10-16 17:52:00,
2013-10-16 11:11:00,50.0,41.0,-100.00,North,0,2.0,8.0,73,-99.99,,,-99.99,,2013-10-16 18:11:00,
2013-10-16 12:21:00,54.0,42.0,-100.00,South,180,3.0,4.0,63,-99.99,,,-99.99,,2013-10-16 19:21:00,
2013-10-16 12:32:00,54.0,42.0,-100.00,South,180,3.0,4.0,63,-99.99,,,-99.99,,2013-10-16 19:32:00,
2013-10-16 12:52:00,56.0,42.0,-100.00,South,180,1.0,3.0,58,-99.99,,,-99.99,,2013-10-16 19:52:00,
2013-10-16 13:02:00,56.0,42.0,-100.00,South,180,1.0,3.0,58,-99.99,,,-99.99,,2013-10-16 20:02:00,
2013-10-16 13:22:00,58.0,42.0,-100.00,SW,225,4.0,6.0,54,-99.99,,,-99.99,,2013-10-16 20:22:00,
2013-10-16 13:32:00,58.0,42.0,-100.00,SW,225,4.0,6.0,54,-99.99,,,-99.99,,2013-10-16 20:32:00,
2013-10-16 13:52:00,61.0,42.0,-100.00,SW,225,1.0,6.0,49,-99.99,,,-99.99,,2013-10-16 20:52:00,
2013-10-16 14:02:00,61.0,42.0,-100.00,SW,225,1.0,6.0,49,-99.99,,,-99.99,,2013-10-16 21:02:00,
2013-10-16 14:23:00,62.0,42.0,-100.00,North,0,2.0,6.0,47,-99.99,,,-99.99,,2013-10-16 21:23:00,
2013-10-16 14:34:00,62.0,42.0,-100.00,North,0,2.0,6.0,47,-99.99,,,-99.99,,2013-10-16 21:34:00,
2013-10-16 15:42:00,66.0,42.0,-100.00,SE,135,1.0,5.0,42,-99.99,,,-99.99,,2013-10-16 22:42:00,
2013-10-16 15:54:00,66.0,43.0,-100.00,West,270,0.0,3.0,43,-99.99,,,-99.99,,2013-10-16 22:54:00,
2013-10-16 16:02:00,66.0,43.0,-100.00,West,270,0.0,3.0,43,-99.99,,,-99.99,,2013-10-16 23:02:00,
2013-10-16 17:11:00,65.0,48.0,-100.00,South,180,1.0,4.0,55,-99.99,,,-99.99,,2013-10-17 00:11:00,
2013-10-16 17:42:00,63.0,48.0,-100.00,East,90,1.0,4.0,58,-99.99,,,-99.99,,2013-10-17 00:42:00,
2013-10-16 18:12:00,59.0,49.0,-100.00,East,90,1.0,6.0,69,-99.99,,,-99.99,,2013-10-17 01:12:00,
2013-10-16 18:42:00,57.0,48.0,-100.00,East,90,2.0,4.0,73,-99.99,,,-99.99,,2013-10-17 01:42:00,
2013-10-16 20:12:00,52.0,46.0,-100.00,East,90,1.0,3.0,81,-99.99,,,-99.99,,2013-10-17 03:12:00,
2013-10-16 20:22:00,52.0,46.0,-100.00,East,90,1.0,3.0,78,-99.99,,,-99.99,,2013-10-17 03:22:00,
2013-10-16 20:44:00,52.0,46.0,-100.00,South,180,1.0,3.0,80,-99.99,,,-99.99,,2013-10-17 03:44:00,
2013-10-16 21:14:00,50.0,45.0,-100.00,South,180,1.0,2.0,84,-99.99,,,-99.99,,2013-10-17 04:14:00,
2013-10-16 21:43:00,49.0,44.0,-100.00,East,90,1.0,4.0,84,-99.99,,,-99.99,,2013-10-17 04:43:00,
2013-10-16 22:42:00,47.0,44.0,-100.00,East,90,1.0,3.0,88,-99.99,,,-99.99,,2013-10-17 05:42:00,
2013-10-16 23:42:00,47.0,44.0,-100.00,SE,135,1.0,4.0,90,-99.99,,,-99.99,,2013-10-17 06:42:00,